Tracking 29892 objects as of 21-Nov-2024
HD Live streaming from Space Station
objects crossing your sky now

CZ-6A DEB

Track CZ-6A DEB now!
10-day predictions


NORAD ID: 55529
Int'l Code: 2022-151YB
Perigee: 662.1 km
Apogee: 810.7 km
Inclination: 98.7 °
Period: 99.4 minutes
Semi major axis: 7107 km
RCS: Unknown
Launch date: November 11, 2022
Source: People's Republic of China (PRC)
Launch site: Taiyaun Space Center, China (TSC)

Note: This is SATELLITE DEBRIS
Your satellite tracking list
Your tracking list is empty




NASA's NSSDC Master Catalog

Two Line Element Set (TLE):
1 55529U 22151YB  24325.54866707  .00013785  00000-0  34060-2 0  9995
2 55529  98.6675 352.1419 0104509 262.3076  96.6239 14.48890965101044
Source of the keplerian elements: AFSPC